#timestamp,LO_Frequency,Hit,StdDev 
1548522015.7,286046998.6,P
1548522035.6,286047000.7,N
1548522055.4,286047000.5,N
1548522075.2,286046999.1,N
1548522095.1,286046999.4,N
1548522096.0,286046999.4,N
1548522115.8,286046997.9,N
1548522135.7,286046996.5,Y
1548522155.5,286047003.5,P
1548522175.3,286047004.7,N
1548522195.2,286047002.6,N
1548522215.0,286047007.5,Y
1548522215.9,286047007.5,P
1548522235.7,286047001.5,N
1548522255.6,286046998.1,N
1548522275.4,286046999.6,N
1548522295.3,286046997.0,N
1548522315.1,286046996.7,N
1548522316.0,286046996.7,N
1548522335.8,286046997.2,N
1548522355.7,286046998.4,N
1548522375.5,286046995.3,N
1548522395.4,286046992.0,N
1548522415.2,286046988.9,N
1548522435.0,286046991.1,N
1548522435.9,286046991.1,N
1548522455.8,286046993.4,N
1548522475.6,286046993.4,N
1548522495.4,286046996.4,N
1548522515.3,286046996.2,N
1548522535.1,286046995.4,N
1548522555.9,286046997.2,N
1548522575.7,286046999.3,N
1548522595.5,286046992.3,N
1548522615.4,286046996.3,N
1548522635.2,286046997.4,N
1548522655.1,286046995.3,N
1548522656.0,286046995.3,N
1548522675.8,286046995.6,N
1548522695.6,286046994.4,N
1548522715.5,286046995.1,N
1548522735.3,286046994.5,N
1548522755.2,286046992.4,N
1548522775.9,286046992.3,N
1548522795.7,286046994.1,N
1548522815.6,286046999.0,N
1548522835.4,286047002.5,N
1548522855.2,286046998.8,N
1548522875.1,286046997.5,N
1548522876.0,286046997.5,N
1548522895.8,286046997.2,N
1548522915.7,286046997.4,N
1548522935.5,286047000.8,N
1548522955.3,286046999.8,N
1548522975.2,286046998.8,N
1548522995.0,286046996.5,N
1548522995.9,286046996.5,N
1548523015.8,286046997.7,N
1548523035.6,286046996.7,N
1548523055.4,286046997.0,N
1548523075.3,286046998.7,N
1548523095.1,286046994.7,N
1548523115.8,286046992.8,N
1548523135.7,286046993.9,N
1548523155.5,286046994.6,N
1548523175.4,286046993.2,N
1548523195.2,286046994.4,N
1548523215.0,286046997.8,N
1548523215.9,286046997.8,N
1548523235.8,286046999.1,N
1548523255.6,286046996.1,N
1548523275.5,286046992.3,Y
1548523295.3,286046999.5,P
1548523315.1,286046992.8,P
1548523335.9,286046990.7,P
1548523355.7,286046989.6,Y
1548523375.5,286046991.2,P
1548523395.4,286046996.0,N
1548523415.2,286046997.6,N
1548523435.1,286046995.0,N
1548523436.0,286046995.0,N
1548523455.8,286046995.3,N
1548523475.6,286046996.8,N
1548523495.5,286046996.9,N
1548523515.3,286046999.6,N
1548523535.2,286047003.2,N
1548523555.9,286047009.2,Y
1548523575.7,286047018.5,P
1548523595.6,286047019.5,N
1548523615.4,286047018.8,N
1548523635.2,286047016.4,N
1548523655.1,286047018.3,N
1548523656.0,286047018.3,N
1548523675.8,286047013.3,N
1548523695.7,286047010.1,N
1548523715.5,286047010.8,N
1548523735.3,286047012.4,N
1548523755.2,286047012.7,N
1548523775.0,286047015.6,N
1548523775.9,286047015.6,N
1548523795.8,286047012.8,N
1548523815.6,286047012.1,N
1548523835.4,286047009.0,N
1548523855.3,286047001.9,N
1548523875.1,286047000.4,N
1548523895.9,286047002.5,N
1548523915.7,286047003.7,N
1548523935.5,286047002.4,N
1548523955.4,286047000.5,N
1548523975.2,286047000.5,N
1548523995.1,286047000.3,N
1548523996.0,286047000.3,N
1548524015.8,286046995.0,N
1548524035.6,286046993.0,N
1548524055.5,286046994.6,N
1548524075.3,286047001.2,N
1548524095.1,286047002.2,N
1548524115.9,286047004.0,N
1548524135.7,286047003.6,N
1548524155.6,286047001.4,N
1548524175.4,286047003.5,N
1548524195.2,286047001.7,N
1548524215.1,286047001.4,N
1548524216.0,286047001.4,N
1548524235.8,286046999.0,N
1548524255.7,286046998.1,N
1548524275.5,286047000.1,N
1548524295.3,286046999.4,N
1548524315.2,286046997.8,N
1548524335.0,286046997.8,N
1548524335.9,286046997.8,N
1548524355.7,286046996.4,N
1548524375.6,286046996.2,N
1548524395.4,286046994.1,N
1548524445.3,286046996.4,E
1548524455.2,286046995.4,N
1548524475.0,286046999.0,P
1548524475.9,286046999.0,N
1548524495.8,286047001.6,N
1548524515.6,286047004.1,N
1548524535.5,286047005.6,N
1548524555.3,286047003.7,N
1548524575.1,286047001.3,N
1548524595.9,286047004.7,N
1548524615.7,286047005.0,N
1548524635.5,286047004.9,N
1548524655.4,286047011.7,Y
1548524675.2,286047014.0,P
1548524695.1,286047014.9,N
1548524696.0,286047014.9,N
1548524715.8,286047011.7,N
1548524735.6,286047011.6,N
1548524755.5,286047011.9,N
1548524775.3,286047010.8,N
1548524795.2,286047014.8,Y
1548524815.9,286047001.9,P
1548524835.7,286047001.0,N
1548524855.6,286047001.2,N
1548524875.4,286047001.8,N
1548524895.3,286047005.4,N
1548524915.1,286047004.7,N
1548524916.0,286047004.7,N
1548524935.8,286047005.9,N
1548524955.7,286047002.6,N
1548524975.5,286047000.1,N
1548524995.4,286047002.1,N
1548525015.2,286047001.6,N
1548525035.0,286047001.9,N
1548525035.9,286047001.9,N
1548525055.8,286047002.4,N
1548525075.6,286047001.8,N
1548525095.4,286047005.5,N
1548525115.3,286047004.1,N
1548525135.1,286047001.5,N
1548525155.9,286047005.7,N
1548525175.7,286047006.5,N
1548525195.5,286047007.5,N
1548525215.4,286047006.3,N
1548525235.2,286047004.6,N
1548525255.0,286047004.0,N
1548525255.9,286047004.0,N
1548525275.8,286047005.6,N
1548525295.6,286047001.5,N
1548525315.5,286047004.3,N
1548525335.3,286047002.5,N
1548525355.1,286047004.0,N
1548525375.9,286047003.2,N
1548525395.7,286047007.5,Y
1548525415.6,286047001.0,P
1548525435.4,286047000.3,N
1548525455.2,286047000.0,N
1548525475.1,286047000.4,N
1548525476.0,286047000.4,N
1548525495.8,286046999.9,N
1548525515.6,286046998.7,N
1548525535.5,286046998.1,N
1548525555.3,286047002.8,N
1548525575.2,286047000.3,N
1548525595.9,286047003.7,N
